Weather History for Warrenton, VA

Change the Weather History Date:

Wednesday, February 29, 2012

  Actual Average (KHEF) Record (KHEF)
Temperature  
Mean Temperature 46 °F -  
Max Temperature 60 °F 48 °F 66 °F (2004)
Min Temperature 34 °F 26 °F 15 °F (2008)
Degree Days  
Heating Degree Days 18    
Moisture  
Dew Point 46 °F    
Average Humidity 94    
Maximum Humidity 100    
Minimum Humidity 74    
Precipitation  
Precipitation 0.55 in - - ()
Sea Level Pressure  
Sea Level Pressure 30.04 in    
Wind  
Wind Speed 3 mph (South)    
Max Wind Speed 12 mph    
Max Gust Speed 18 mph    
Visibility 8 miles    
Events Rain , Thunderstorm    
Averages and records for this station are not official NWS values.
T = Trace of Precipitation, MM = Missing Value Source: NWS Daily Summary

Daily Weather History Graph

Daily Weather History Graph

Search for Another Location

Airport:

Trip Planner

Search our weather history database for the weather conditions in past years. The results will help you decide how hot, cold, wet, or windy it might be!

Date:

Astronomy

Feb. 29, 2012 Rise Set
Actual Time 6:43 AM EST 6:03 PM EST
Civil Twilight 6:17 AM EST 6:29 PM EST
Nautical Twilight 5:46 AM EST 7:00 PM EST
Astronomical Twilight 5:15 AM EST 7:31 PM EST
Moon 10:38 AM EST (2/29) 12:43 AM EST (2/29)
Length of Visible Light 12h 12m
Length of Day
11h 19m
Waxing Crescent, 47% of the Moon is Illuminated
Feb 29
Waxing Crescent
Feb 29
First Quarter
Mar 8
Full
Mar 14
Last Quarter
Mar 22
New

Hourly Weather History & Observations

Time (EST) Temp. Windchill Dew Point Humidity Pressure Visibility Wind Dir Wind Speed Gust Speed Precip Events Conditions
12:15 AM 39.6 °F - 34.9 °F 83% 30.30 in 10.0 mi Calm Calm - N/A   Scattered Clouds
12:35 AM 38.7 °F - 34.9 °F 86% 30.30 in 10.0 mi Calm Calm - N/A   Clear
12:55 AM 36.5 °F - 34.0 °F 91% 30.29 in 10.0 mi Calm Calm - N/A   Clear
1:15 AM 37.2 °F - 34.3 °F 89% 30.29 in 10.0 mi Calm Calm - N/A   Clear
1:35 AM 34.5 °F - 33.8 °F 97% 30.28 in 10.0 mi Calm Calm - N/A   Clear
1:55 AM 34.7 °F - 33.6 °F 96% 30.28 in 10.0 mi Calm Calm - N/A   Clear
2:15 AM 34.0 °F - 33.4 °F 98% 30.27 in 10.0 mi Calm Calm - N/A   Clear
2:35 AM 36.7 °F - 35.1 °F 94% 30.25 in 10.0 mi Calm Calm - N/A   Clear
2:55 AM 39.6 °F 37.4 °F 36.1 °F 88% 30.23 in 10.0 mi SE 3.5 mph - N/A   Scattered Clouds
3:15 AM 37.9 °F 35.5 °F 36.9 °F 96% 30.22 in 10.0 mi East 3.5 mph - N/A   Clear
3:35 AM 39.4 °F - 36.7 °F 90% 30.22 in 10.0 mi Calm Calm - N/A   Clear
3:55 AM 41.7 °F 38.8 °F 38.5 °F 88% 30.20 in 10.0 mi SE 4.6 mph - N/A   Clear
4:15 AM 43.3 °F 39.9 °F 38.7 °F 84% 30.19 in 10.0 mi SSE 5.8 mph - N/A   Scattered Clouds
4:35 AM 43.9 °F 39.9 °F 38.3 °F 81% 30.18 in 10.0 mi SSE 6.9 mph - N/A   Mostly Cloudy
4:55 AM 44.4 °F 42.9 °F 38.5 °F 80% 30.19 in 10.0 mi South 3.5 mph - N/A   Mostly Cloudy
5:15 AM 44.8 °F 41.6 °F 38.7 °F 79% 30.17 in 10.0 mi SE 5.8 mph - N/A   Overcast
5:35 AM 45.0 °F 41.2 °F 38.5 °F 78% 30.15 in 10.0 mi SSE 6.9 mph - N/A   Overcast
5:55 AM 45.0 °F 43.5 °F 38.7 °F 79% 30.15 in 10.0 mi SSE 3.5 mph - N/A   Mostly Cloudy
6:15 AM 45.7 °F 42.0 °F 38.5 °F 76% 30.13 in 10.0 mi South 6.9 mph - N/A   Scattered Clouds
6:35 AM 46.0 °F 42.5 °F 38.3 °F 74% 30.12 in 10.0 mi SSE 6.9 mph - N/A   Mostly Cloudy
6:55 AM 45.9 °F 41.2 °F 38.7 °F 76% 30.12 in 10.0 mi SSE 9.2 mph - N/A   Overcast
7:15 AM 45.9 °F 42.3 °F 38.7 °F 76% 30.11 in 10.0 mi SSE 6.9 mph - N/A Rain Rain
7:35 AM 44.2 °F 41.0 °F 41.0 °F 88% 30.11 in 7.0 mi South 5.8 mph - N/A Rain Rain
7:55 AM 43.9 °F 42.3 °F 42.1 °F 93% 30.13 in 7.0 mi SW 3.5 mph - 0.01 in Rain Rain
8:15 AM 43.7 °F - 43.0 °F 97% 30.12 in 5.0 mi Calm Calm - 0.02 in Rain Rain
8:35 AM 43.7 °F 42.1 °F 43.5 °F 99% 30.12 in 5.0 mi South 3.5 mph - 0.03 in Rain Rain
8:55 AM 43.3 °F - 43.3 °F 100% 30.11 in 2.5 mi Calm Calm - 0.08 in Rain Rain
9:15 AM 43.7 °F 41.1 °F 43.7 °F 100% 30.09 in 4.0 mi SE 4.6 mph - 0.02 in Rain Rain
9:35 AM 44.1 °F 42.5 °F 44.1 °F 100% 30.05 in 4.0 mi South 3.5 mph - 0.06 in Rain Rain
9:55 AM 44.8 °F - 44.8 °F 100% 30.06 in 3.0 mi Calm Calm - 0.12 in Rain , Thunderstorm Heavy Thunderstorms and Rain
10:15 AM 44.8 °F 42.4 °F 44.8 °F 100% 30.06 in 1.5 mi SSW 4.6 mph - 0.07 in Rain , Thunderstorm Heavy Thunderstorms and Rain
10:55 AM 45.5 °F 42.5 °F 45.5 °F 100% 30.05 in 2.5 mi SSW 5.8 mph - 0.19 in Rain Rain
11:15 AM 45.5 °F 44.2 °F 45.5 °F 100% 30.03 in 1.0 mi WNW 3.5 mph - 0.09 in Rain Rain
11:35 AM 46.4 °F 42.4 °F 46.4 °F 100% 29.97 in 4.0 mi SSE 8.1 mph - 0.11 in Rain Light Rain
11:55 AM 48.4 °F - 48.4 °F 100% 29.97 in 10.0 mi South 10.4 mph - 0.11 in   Mostly Cloudy
12:35 PM 53.4 °F - 53.4 °F 100% 29.92 in 10.0 mi South 8.1 mph - N/A   Scattered Clouds
12:55 PM 54.1 °F - 53.6 °F 98% 29.91 in 10.0 mi SSW 11.5 mph 17.3 mph N/A   Scattered Clouds
1:15 PM 53.6 °F - 53.1 °F 98% 29.89 in 10.0 mi SSW 9.2 mph - N/A   Mostly Cloudy
1:35 PM 53.6 °F - 53.2 °F 99% 29.91 in 10.0 mi SW 8.1 mph - N/A   Scattered Clouds
1:55 PM 53.6 °F - 53.6 °F 100% 29.92 in 10.0 mi SW 6.9 mph - N/A Rain Rain
2:15 PM 54.5 °F - 54.5 °F 100% 29.88 in 10.0 mi Calm Calm - N/A Rain Light Rain
2:35 PM 55.4 °F - 55.4 °F 100% 29.86 in 10.0 mi Calm Calm - N/A   Scattered Clouds
2:55 PM 55.9 °F - 55.9 °F 100% 29.85 in 10.0 mi SSW 4.6 mph - N/A   Overcast
3:15 PM 56.7 °F - 56.7 °F 100% 29.85 in 10.0 mi SSW 5.8 mph - N/A   Overcast
3:35 PM 57.4 °F - 57.4 °F 100% 29.82 in 10.0 mi South 3.5 mph - N/A   Overcast
3:55 PM 57.6 °F - 57.6 °F 100% 29.82 in 10.0 mi SSW 5.8 mph - N/A   Mostly Cloudy
4:15 PM 58.1 °F - 58.1 °F 100% 29.81 in 10.0 mi South 5.8 mph - N/A   Mostly Cloudy
4:35 PM 57.9 °F - 57.9 °F 100% 29.82 in 10.0 mi South 4.6 mph - N/A   Mostly Cloudy
4:55 PM 58.1 °F - 58.1 °F 100% 29.81 in 10.0 mi SSW 8.1 mph - N/A   Overcast
5:15 PM 58.3 °F - 58.3 °F 100% 29.81 in 10.0 mi SSW 5.8 mph - N/A   Overcast
5:35 PM 58.5 °F - 58.5 °F 100% 29.82 in 10.0 mi SSW 8.1 mph - N/A   Overcast
5:55 PM 59.0 °F - 59.0 °F 100% 29.81 in 10.0 mi SSW 10.4 mph - N/A Rain Rain
6:15 PM 59.2 °F - 59.2 °F 100% 29.82 in 7.0 mi SSW 11.5 mph 18.4 mph N/A Rain Rain
6:35 PM 59.2 °F - 59.2 °F 100% 29.80 in 7.0 mi SSW 11.5 mph 17.3 mph 0.01 in Rain Rain
6:55 PM 59.5 °F - 59.5 °F 100% 29.78 in 7.0 mi South 10.4 mph - 0.03 in Rain , Thunderstorm Rain
7:15 PM 60.1 °F - 60.1 °F 100% 29.77 in 10.0 mi South 10.4 mph 17.3 mph 0.01 in Rain Rain
7:35 PM 60.4 °F - 60.4 °F 100% 29.77 in 10.0 mi South 9.2 mph - 0.01 in   Mostly Cloudy
7:55 PM 60.6 °F - 60.6 °F 100% 29.77 in 10.0 mi South 11.5 mph 17.3 mph 0.01 in Rain Light Rain
8:15 PM 60.8 °F - 60.8 °F 100% 29.78 in 7.0 mi SSW 8.1 mph - 0.01 in Rain Rain
8:35 PM 61.0 °F - 61.0 °F 100% 29.79 in 7.0 mi SSW 6.9 mph - 0.03 in Rain Heavy Rain
8:55 PM 60.8 °F - 60.8 °F 100% 29.77 in 7.0 mi SSW 6.9 mph - 0.05 in Rain , Thunderstorm Light Thunderstorms and Rain
9:15 PM 60.6 °F - 60.6 °F 100% 29.74 in 7.0 mi SSE 9.2 mph - 0.01 in Rain Rain
9:35 PM 60.8 °F - 60.8 °F 100% 29.71 in 10.0 mi South 10.4 mph 16.1 mph 0.02 in Rain Light Rain
9:55 PM 61.2 °F - 61.2 °F 100% 29.70 in 10.0 mi South 9.2 mph - 0.02 in   Overcast
10:15 PM 60.8 °F - 60.8 °F 100% 29.69 in 10.0 mi SSW 5.8 mph - N/A   Scattered Clouds
10:35 PM 60.8 °F - 60.8 °F 100% 29.69 in 10.0 mi SSW 4.6 mph - N/A   Scattered Clouds
10:55 PM 60.8 °F - 60.8 °F 100% 29.70 in 10.0 mi SSW 3.5 mph - N/A   Mostly Cloudy
11:15 PM 61.0 °F - 61.0 °F 100% 29.68 in 10.0 mi SSW 5.8 mph - N/A   Overcast
11:35 PM 61.5 °F - 61.5 °F 100% 29.67 in 10.0 mi SW 8.1 mph - N/A   Mostly Cloudy
11:55 PM 61.9 °F - 61.9 °F 100% 29.67 in 10.0 mi WSW 5.8 mph - N/A   Mostly Cloudy